GW0760 Weather Reports


time (UTC)temp
C
wind
direction
speed
KPH
gust
KPH
rain 1hr
cm
rain 24hr
cm
rain mn
cm
humidity
%
barometer
mb
20260507051003 8 221 0.0 4.8 0.00 0.81 0.00 92 1006.4
20260507050503 8 221 0.0 4.8 0.00 0.81 0.00 92 1006.4
20260507050003 8 282 1.6 6.4 0.00 0.81 0.00 92 1006.3
20260507045503 8 246 3.2 6.4 0.00 0.81 0.00 92 1006.2
20260507045003 9 239 3.2 11.3 0.00 0.81 0.00 92 1006.2
20260507044524 9 270 3.2 11.3 0.00 0.81 0.00 92 1006.1
20260507044003 9 249 3.2 11.3 0.00 0.81 0.00 92 1006.2
20260507043503 9 231 1.6 6.4 0.00 0.81 0.00 92 1006.1
20260507043003 9 234 3.2 6.4 0.00 0.81 0.00 92 1006.3
20260507042503 9 229 3.2 9.7 0.00 0.81 0.00 92 1006.4
20260507042003 9 237 3.2 9.7 0.00 0.81 0.00 92 1006.5
20260507041524 9 254 3.2 9.7 0.00 0.81 0.00 92 1006.7
20260507041024 9 261 3.2 11.3 0.00 0.81 0.00 92 1006.4
20260507040502 9 295 3.2 20.9 0.00 0.81 0.00 92 1006.6
20260507040024 9 297 3.2 20.9 0.03 0.81 0.00 92 1006.5
20260507035503 10 249 1.6 12.9 0.05 0.81 0.81 92 1006.6
20260507035003 10 248 1.6 12.9 0.10 0.81 0.81 92 1006.4
20260507034503 10 244 1.6 11.3 0.13 0.81 0.81 93 1006.5
20260507034003 10 230 1.6 11.3 0.15 0.81 0.81 93 1006.2
20260507033503 10 228 1.6 9.7 0.15 0.81 0.81 93 1006.3
20260507033003 10 257 3.2 11.3 0.15 0.81 0.81 93 1006.2
20260507032524 10 265 4.8 11.3 0.15 0.81 0.81 92 1006.2
20260507032003 10 287 4.8 17.7 0.15 0.81 0.81 93 1006.1
20260507031503 10 314 4.8 17.7 0.18 0.81 0.81 93 1006.2
20260507031024 10 315 6.4 14.5 0.18 0.81 0.81 93 1006.1
20260507030503 10 293 4.8 14.5 0.18 0.81 0.81 93 1006.1
20260507030003 11 306 4.8 12.9 0.15 0.79 0.79 93 1006.2
20260507025503 11 294 3.2 12.9 0.13 0.76 0.76 93 1006.4
20260507025003 11 274 3.2 9.7 0.10 0.74 0.74 93 1006.4
20260507024503 11 310 6.4 14.5 0.05 0.71 0.71 92 1006.2
20260507024003 11 300 6.4 14.5 0.05 0.69 0.69 92 1006.1
20260507023502 12 307 6.4 14.5 0.08 0.69 0.69 92 1006.0
20260507023003 12 313 4.8 14.5 0.08 0.69 0.69 93 1005.9
20260507022524 12 263 3.2 14.5 0.10 0.66 0.66 93 1005.9
20260507022003 12 237 3.2 11.3 0.25 0.66 0.66 93 1005.9
20260507021524 12 234 1.6 11.3 0.33 0.64 0.64 93 1005.5
20260507021003 13 249 1.6 12.9 0.33 0.64 0.64 93 1005.3
20260507020524 13 234 1.6 12.9 0.33 0.64 0.64 92 1005.4
20260507020002 13 208 1.6 12.9 0.33 0.64 0.64 92 1005.1
20260507015503 13 224 1.6 12.9 0.33 0.64 0.64 92 1005.3
20260507015003 13 216 1.6 9.7 0.33 0.64 0.64 92 1004.9
20260507014503 13 213 1.6 4.8 0.33 0.64 0.64 92 1004.9
20260507014003 13 297 4.8 16.1 0.33 0.64 0.64 92 1005.0
20260507013503 14 300 4.8 16.1 0.28 0.61 0.61 92 1005.0
20260507013003 15 228 3.2 11.3 0.28 0.61 0.61 92 1004.9
20260507012523 15 209 1.6 9.7 0.25 0.56 0.56 93 1004.8
20260507012003 15 203 1.6 4.8 0.10 0.41 0.41 93 1004.6
20260507011524 15 195 1.6 4.8 0.00 0.33 0.33 93 1004.5
20260507011003 15 191 1.6 4.8 0.00 0.33 0.33 93 1004.3
20260507010524 15 188 1.6 4.8 0.00 0.33 0.33 93 1004.3
20260507010003 15 193 1.6 4.8 0.00 0.33 0.33 93 1004.2
20260507005503 15 193 1.6 6.4 0.00 0.33 0.33 93 1004.3
20260507005003 15 187 1.6 6.4 0.00 0.33 0.33 93 1004.2
20260507004524 15 194 1.6 6.4 0.00 0.33 0.33 93 1004.2
20260507004003 15 197 1.6 6.4 0.00 0.33 0.33 93 1004.2
20260507003502 15 196 1.6 4.8 0.00 0.33 0.33 93 1004.1
20260507003024 15 197 1.6 9.7 0.00 0.33 0.33 93 1004.0
20260507002503 15 199 0.0 9.7 0.00 0.33 0.33 93 1003.7
20260507002003 15 189 0.0 3.2 0.00 0.36 0.33 93 1003.8
20260507001503 15 194 0.0 4.8 0.00 0.36 0.33 93 1004.1
20260507001003 15 196 1.6 6.4 0.00 0.36 0.33 93 1004.0
20260507000503 15 192 1.6 6.4 0.00 0.36 0.33 93 1003.9
20260507000003 15 195 1.6 9.7 0.00 0.36 0.33 93 1003.8
20260506235502 15 201 1.6 12.9 0.00 0.36 0.33 93 1003.8
20260506235003 15 203 1.6 12.9 0.00 0.36 0.33 93 1003.8
20260506234503 15 195 1.6 11.3 0.00 0.36 0.33 93 1003.5
20260506234003 15 191 1.6 11.3 0.00 0.36 0.33 93 1003.6
20260506233503 15 188 1.6 9.7 0.00 0.36 0.33 93 1003.7
20260506233003 15 185 0.0 6.4 0.00 0.36 0.33 93 1003.5
20260506232503 15 186 0.0 4.8 0.00 0.36 0.33 93 1003.9
20260506232003 15 194 1.6 11.3 0.00 0.36 0.33 93 1003.7
20260506231503 15 199 1.6 11.3 0.00 0.36 0.33 93 1004.0
20260506231003 15 198 1.6 9.7 0.00 0.36 0.33 93 1003.9
20260506230524 15 197 1.6 6.4 0.00 0.36 0.33 93 1003.8
20260506230003 15 197 1.6 6.4 0.00 0.36 0.33 93 1003.8
20260506225503 15 197 1.6 9.7 0.00 0.36 0.33 93 1003.8
20260506225003 15 195 1.6 9.7 0.00 0.36 0.33 93 1003.7
20260506224503 15 199 1.6 9.7 0.00 0.36 0.33 93 1003.8
20260506224003 15 205 3.2 11.3 0.00 0.36 0.33 93 1003.7
20260506223503 15 204 3.2 11.3 0.00 0.36 0.33 93 1003.9
20260506223003 15 195 1.6 6.4 0.00 0.36 0.33 93 1003.8
20260506222524 15 192 1.6 6.4 0.00 0.36 0.33 93 1003.7
20260506222003 15 193 1.6 6.4 0.00 0.36 0.33 93 1003.8
20260506221503 15 193 1.6 6.4 0.00 0.36 0.33 93 1004.1
20260506221003 15 192 1.6 4.8 0.00 0.36 0.33 93 1003.9
20260506220503 15 198 1.6 4.8 0.00 0.36 0.33 93 1004.0
20260506220003 15 198 3.2 11.3 0.00 0.36 0.33 93 1004.0
20260506215503 15 196 1.6 11.3 0.00 0.36 0.33 93 1004.1
20260506215003 15 196 1.6 11.3 0.00 0.36 0.33 93 1004.2
20260506214503 15 196 3.2 11.3 0.00 0.36 0.33 93 1004.0
20260506214003 16 199 3.2 12.9 0.00 0.36 0.33 93 1003.9
20260506213503 16 197 3.2 12.9 0.00 0.36 0.33 93 1003.9
20260506213003 15 201 3.2 12.9 0.00 0.36 0.33 93 1003.8
20260506212524 16 195 3.2 12.9 0.00 0.36 0.33 93 1004.1
20260506212003 16 189 3.2 11.3 0.00 0.36 0.33 93 1004.1
20260506211503 16 195 3.2 9.7 0.00 0.36 0.33 93 1004.2
20260506211003 16 199 3.2 11.3 0.00 0.36 0.33 93 1004.2
20260506210503 16 203 3.2 11.3 0.00 0.36 0.33 93 1004.1
20260506210003 16 205 4.8 16.1 0.00 0.36 0.33 93 1004.1
20260506205503 16 205 4.8 20.9 0.03 0.36 0.33 93 1004.1
20260506205003 16 200 3.2 20.9 0.03 0.36 0.33 93 1004.1
20260506204503 16 196 3.2 16.1 0.05 0.36 0.33 93 1004.3
20260506204003 16 194 3.2 16.1 0.08 0.36 0.33 93 1004.3
20260506203524 16 193 3.2 11.3 0.08 0.36 0.33 93 1004.3
20260506203003 16 191 1.6 11.3 0.13 0.36 0.33 93 1004.2
20260506202503 16 186 1.6 6.4 0.13 0.36 0.33 93 1004.2
20260506202003 16 189 1.6 9.7 0.13 0.36 0.33 93 1004.3
20260506201503 16 191 1.6 9.7 0.13 0.36 0.33 93 1004.5
20260506201024 16 195 1.6 6.4 0.13 0.36 0.33 93 1004.5
20260506200503 16 201 1.6 6.4 0.13 0.36 0.33 93 1004.6
20260506200003 16 192 1.6 9.7 0.13 0.36 0.33 92 1004.4
20260506195524 16 186 1.6 9.7 0.10 0.33 0.28 92 1004.7
20260506195003 16 197 1.6 9.7 0.10 0.33 0.28 92 1004.7
20260506194524 16 194 1.6 9.7 0.08 0.30 0.28 92 1004.6
20260506194003 16 187 1.6 6.4 0.08 0.28 0.25 92 1004.9
20260506193503 16 190 1.6 6.4 0.08 0.28 0.25 92 1004.9
20260506193003 16 189 1.6 6.4 0.03 0.23 0.20 92 1004.8
20260506192524 16 193 1.6 12.9 0.03 0.23 0.20 92 1004.7
20260506192002 16 196 1.6 12.9 0.03 0.23 0.20 91 1005.0
20260506191503 16 191 0.0 6.4 0.05 0.23 0.20 92 1004.9
20260506191024 16 196 0.0 3.2 0.05 0.23 0.20 92 1004.8
20260506190524 16 194 0.0 3.2 0.05 0.23 0.20 92 1004.7
20260506190003 16 188 0.0 4.8 0.08 0.23 0.20 91 1004.8
20260506185503 16 190 0.0 4.8 0.08 0.23 0.20 91 1004.7
20260506185024 16 195 0.0 4.8 0.10 0.23 0.20 91 1005.0
20260506184503 16 189 0.0 4.8 0.10 0.23 0.20 91 1005.1
20260506184003 16 179 0.0 3.2 0.13 0.20 0.18 91 1005.7
20260506183524 16 183 1.6 6.4 0.13 0.20 0.18 91 1005.4
20260506183024 16 190 1.6 6.4 0.15 0.20 0.18 90 1005.5
20260506182503 16 198 1.6 6.4 0.15 0.20 0.18 90 1005.9
20260506182003 16 199 1.6 4.8 0.15 0.20 0.18 90 1005.9
20260506181503 16 192 1.6 4.8 0.15 0.18 0.15 90 1005.8
20260506181024 16 190 1.6 4.8 0.15 0.18 0.15 90 1005.8
20260506180503 16 190 1.6 4.8 0.15 0.18 0.15 89 1005.9
20260506180024 16 184 1.6 11.3 0.13 0.15 0.13 89 1005.9
20260506175503 16 188 1.6 11.3 0.13 0.15 0.13 88 1006.1
20260506175003 16 195 1.6 6.4 0.10 0.15 0.10 86 1006.1
20260506174524 16 192 1.6 9.7 0.10 0.13 0.10 85 1006.3
20260506174003 17 190 3.2 9.7 0.05 0.10 0.10 84 1006.3
20260506173503 17 187 1.6 4.8 0.05 0.10 0.05 83 1006.5
20260506173003 17 187 1.6 3.2 0.05 0.08 0.05 81 1006.5
20260506172503 17 189 1.6 4.8 0.03 0.05 0.03 79 1006.2
20260506172024 18 192 1.6 4.8 0.03 0.05 0.03 76 1006.2
20260506171503 18 200 1.6 6.4 0.00 0.03 0.00 75 1006.1
20260506171003 18 200 3.2 14.5 0.00 0.03 0.00 72 1006.3
20260506170503 19 187 3.2 14.5 0.00 0.03 0.00 69 1006.0
20260506170003 20 184 3.2 14.5 0.00 0.03 0.00 68 1006.2
20260506165503 20 196 4.8 14.5 0.00 0.03 0.00 66 1005.7
20260506165024 20 198 4.8 17.7 0.00 0.03 0.00 64 1005.8
20260506164503 20 193 3.2 17.7 0.00 0.03 0.00 65 1005.7
20260506164024 20 193 3.2 14.5 0.00 0.03 0.00 66 1005.9
20260506163503 20 202 3.2 14.5 0.00 0.03 0.00 66 1006.2
20260506163003 20 202 3.2 12.9 0.00 0.03 0.00 65 1006.1
20260506162503 20 205 3.2 12.9 0.00 0.03 0.00 66 1006.4
20260506162003 20 214 3.2 11.3 0.00 0.03 0.00 65 1006.2
20260506161503 20 208 4.8 14.5 0.00 0.03 0.00 65 1006.1
20260506161024 20 204 4.8 14.5 0.00 0.03 0.00 66 1006.4
20260506160503 20 200 4.8 17.7 0.00 0.03 0.00 67 1006.3
20260506160003 20 195 3.2 17.7 0.00 0.03 0.00 65 1006.6
20260506155503 20 200 1.6 9.7 0.00 0.03 0.00 67 1006.6
20260506155003 20 198 3.2 9.7 0.00 0.03 0.00 67 1006.7
20260506154503 20 193 1.6 9.7 0.00 0.03 0.00 68 1006.8
20260506154003 20 188 1.6 3.2 0.00 0.03 0.00 69 1007.1
20260506153503 20 200 1.6 4.8 0.00 0.03 0.00 68 1007.2
20260506153003 20 203 1.6 4.8 0.00 0.03 0.00 68 1007.0
20260506152503 20 203 1.6 6.4 0.00 0.03 0.00 68 1007.0
20260506152003 20 200 1.6 6.4 0.00 0.03 0.00 68 1006.8
20260506151503 20 190 3.2 9.7 0.00 0.03 0.00 67 1007.2
20260506151003 20 188 1.6 9.7 0.00 0.03 0.00 67 1007.3
20260506150524 20 192 1.6 6.4 0.00 0.03 0.00 68 1007.2
20260506150003 20 196 3.2 11.3 0.00 0.03 0.00 68 1007.2
20260506145503 20 197 4.8 14.5 0.00 0.03 0.00 66 1007.1
20260506145003 20 194 4.8 14.5 0.00 0.03 0.00 66 1006.9
20260506144503 20 191 3.2 9.7 0.00 0.03 0.00 67 1006.8
20260506144003 20 206 3.2 12.9 0.00 0.03 0.00 69 1007.5
20260506143503 20 205 3.2 12.9 0.00 0.03 0.00 69 1007.3
20260506143003 20 198 3.2 12.9 0.00 0.03 0.00 68 1007.3
20260506142503 20 198 3.2 12.9 0.00 0.03 0.00 69 1007.1
20260506142003 20 198 3.2 6.4 0.00 0.03 0.00 71 1006.9
20260506141503 20 200 3.2 11.3 0.00 0.03 0.00 71 1007.3
20260506141003 20 200 3.2 11.3 0.00 0.03 0.00 72 1007.2
20260506140503 19 203 1.6 6.4 0.00 0.03 0.00 73 1007.1
20260506140003 19 192 1.6 6.4 0.00 0.03 0.00 74 1007.1
20260506135524 18 175 1.6 4.8 0.00 0.03 0.00 75 1007.2
20260506135003 18 188 1.6 4.8 0.00 0.03 0.00 75 1007.0
20260506134503 18 198 1.6 3.2 0.00 0.03 0.00 77 1007.2
20260506134003 17 183 1.6 3.2 0.00 0.03 0.00 78 1007.2
20260506133503 17 176 1.6 3.2 0.00 0.03 0.00 78 1007.5
20260506133003 17 182 1.6 4.8 0.00 0.03 0.00 78 1007.3
20260506132524 17 195 1.6 6.4 0.00 0.03 0.00 78 1007.4
20260506132024 17 193 1.6 6.4 0.00 0.03 0.00 78 1007.6
20260506131503 17 188 0.0 4.8 0.00 0.03 0.00 78 1007.3
20260506131003 17 194 1.6 4.8 0.00 0.03 0.00 78 1007.6
20260506130503 17 190 1.6 4.8 0.00 0.03 0.00 78 1007.8
20260506130003 17 189 1.6 4.8 0.00 0.03 0.00 78 1007.8
20260506125503 17 203 1.6 9.7 0.00 0.03 0.00 78 1007.8
20260506125003 16 204 3.2 9.7 0.00 0.03 0.00 78 1007.5
20260506124503 16 202 1.6 9.7 0.00 0.03 0.00 78 1007.7
20260506124024 16 207 3.2 9.7 0.00 0.03 0.00 78 1007.7
20260506123503 16 206 3.2 9.7 0.00 0.03 0.00 78 1007.5
20260506123003 16 196 1.6 4.8 0.00 0.03 0.00 79 1007.5
20260506122524 16 198 1.6 11.3 0.00 0.03 0.00 79 1007.6
20260506122003 16 201 1.6 11.3 0.00 0.03 0.00 79 1007.6
20260506121503 16 197 1.6 4.8 0.00 0.03 0.00 79 1007.7
20260506121003 16 199 1.6 4.8 0.00 0.03 0.00 79 1007.8
20260506120503 16 192 1.6 4.8 0.00 0.03 0.00 79 1007.6
20260506120003 16 198 1.6 6.4 0.00 0.03 0.00 80 1007.7
20260506115503 16 199 1.6 6.4 0.00 0.03 0.00 80 1007.6
20260506115003 16 194 1.6 4.8 0.00 0.03 0.00 80 1007.8
20260506114503 15 191 1.6 4.8 0.00 0.03 0.00 81 1007.9
20260506114003 15 191 0.0 3.2 0.00 0.03 0.00 81 1007.7
20260506113503 15 195 1.6 4.8 0.00 0.03 0.00 81 1007.9
20260506113003 15 196 1.6 4.8 0.00 0.03 0.00 82 1008.1
20260506112503 15 196 1.6 6.4 0.00 0.03 0.00 82 1008.0
20260506112024 15 195 1.6 6.4 0.00 0.03 0.00 82 1008.0
20260506111503 15 192 1.6 4.8 0.00 0.03 0.00 83 1008.2
20260506111003 15 196 1.6 9.7 0.00 0.03 0.00 84 1007.8
20260506110524 14 198 1.6 9.7 0.00 0.03 0.00 84 1007.7
20260506110003 14 195 1.6 4.8 0.00 0.03 0.00 85 1008.1
20260506105503 14 194 1.6 4.8 0.00 0.03 0.00 85 1007.9
20260506105003 13 195 1.6 4.8 0.00 0.03 0.00 85 1008.1
20260506104503 13 197 0.0 4.8 0.00 0.03 0.00 86 1008.0
20260506104003 13 195 0.0 1.6 0.00 0.03 0.00 85 1008.1
20260506103503 13 195 0.0 1.6 0.00 0.03 0.00 86 1008.0
20260506103003 13 196 0.0 1.6 0.00 0.03 0.00 86 1008.2
20260506102503 13 193 0.0 3.2 0.00 0.03 0.00 86 1008.0
20260506102003 13 190 1.6 3.2 0.00 0.03 0.00 86 1007.9
20260506101503 13 188 0.0 3.2 0.00 0.03 0.00 86 1007.9
20260506101024 13 195 0.0 6.4 0.00 0.03 0.00 87 1007.8
20260506100524 12 196 1.6 6.4 0.00 0.03 0.00 87 1007.8
20260506100003 12 192 0.0 3.2 0.00 0.03 0.00 87 1007.7
20260506095503 12 189 0.0 3.2 0.00 0.03 0.00 87 1007.5
20260506095003 12 186 0.0 1.6 0.00 0.03 0.00 87 1007.8
20260506094503 12 185 0.0 4.8 0.00 0.03 0.00 88 1008.0
20260506094024 12 188 0.0 4.8 0.00 0.03 0.00 88 1007.8
20260506093524 12 0 0.0 0.0 0.00 0.03 0.00 87 1008.1
20260506093003 12 0 0.0 0.0 0.00 0.03 0.00 88 1007.8
20260506092503 12 0 0.0 0.0 0.00 0.03 0.00 87 1007.8
20260506092003 12 0 0.0 0.0 0.00 0.03 0.00 88 1007.8
20260506091503 12 0 0.0 0.0 0.00 0.03 0.00 87 1007.8
20260506091003 12 0 0.0 0.0 0.00 0.03 0.00 87 1007.9
20260506090503 12 0 0.0 0.0 0.00 0.03 0.00 86 1007.9
20260506090003 12 186 0.0 1.6 0.00 0.03 0.00 85 1008.0
20260506085503 12 186 0.0 1.6 0.00 0.03 0.00 84 1007.8
20260506085003 13 186 1.6 1.6 0.00 0.03 0.00 84 1007.7
20260506084503 13 186 1.6 3.2 0.00 0.03 0.00 84 1007.7
20260506084003 13 187 1.6 4.8 0.00 0.03 0.00 84 1008.0
20260506083503 13 186 1.6 4.8 0.00 0.03 0.00 85 1008.0
20260506083003 13 185 1.6 3.2 0.00 0.03 0.00 85 1008.0
20260506082503 13 183 1.6 3.2 0.00 0.03 0.00 85 1007.9
20260506082003 13 180 1.6 3.2 0.00 0.03 0.00 85 1007.8
20260506081503 13 178 1.6 3.2 0.00 0.03 0.00 85 1008.0
20260506081003 13 177 1.6 3.2 0.00 0.03 0.00 85 1007.9
20260506080524 13 177 1.6 4.8 0.00 0.03 0.00 85 1007.9
20260506073503 13 185 1.6 4.8 0.00 0.03 0.00 84 1008.2
20260506073003 13 181 1.6 4.8 0.00 0.03 0.00 84 1007.8
20260506072503 13 177 1.6 4.8 0.00 0.03 0.00 83 1007.9
20260506072003 13 177 1.6 4.8 0.00 0.03 0.00 83 1007.9
20260506071503 13 179 1.6 3.2 0.00 0.03 0.00 83 1007.9
20260506071024 13 179 1.6 3.2 0.00 0.03 0.00 83 1007.7
20260506070503 13 179 0.0 3.2 0.00 0.03 0.00 83 1007.7
20260506062503 14 184 1.6 3.2 0.00 0.03 0.00 82 1007.5
20260506062003 14 182 1.6 3.2 0.00 0.03 0.00 82 1007.8
20260506061524 14 181 0.0 3.2 0.00 0.03 0.00 81 1007.4
20260506061003 14 180 0.0 3.2 0.00 0.03 0.00 81 1007.4
20260506060503 14 180 1.6 3.2 0.00 0.03 0.00 81 1007.5